Location: Arlington
(40.6323°N, 74.1651°W)
Time: 12:23:53
(UTC+00:00)

Cosmos 468 - Pass Details

Date: 22 November 2019
Orbit: 761 x 784 km, 74.0° (Epoch: 13 December)

Event Time Altitude Azimuth Distance (km) Brightness Sun altitude
Rises 23:20:56 0° 189° (S) 3,250 8.0 -20.1°
Reaches altitude 10° 23:23:19 10° 187° (S) 2,328 7.2 -20.5°
Maximum altitude 23:28:34 66° 106° (ESE) 854 4.4 -21.5°
Enters shadow 23:30:26 39° 39° (NE) 1,156 5.0 -21.8°
